Location: Cabeza de los Veneras
(40.2000°N, 5.2000°W)
Time: 03:33:53
(UTC+00:00)

Okean O Rocket - Pass Details

Date: 18 April 2024
Orbit: 619 x 639 km, 98.1° (Epoch: 25 May)

Event Time Altitude Azimuth Distance (km) Brightness Sun altitude
Exits shadow 19:24:50 - 128° (SE) 2,484 4.0 -4.8°
Reaches altitude 10° 19:26:16 10° 119° (ESE) 1,995 3.5 -5.1°
Maximum altitude 19:29:39 23° 67° (ENE) 1,351 2.9 -5.7°
Drops below altitude 10° 19:33:04 10° 16° (NNE) 2,016 4.3 -6.3°
Sets 19:35:38 0° 2° (N) 2,932 5.3 -6.7°
